User: anonymous   Login
Location: Iesi
(43.5167°N, 13.2333°E)
Time: 10:53:45
(UTC+00:00)
Language:

SPOT 3 Rocket - Orbit

View from above orbital plane
View from above orbital plane
View from above satellite
View from above satellite

Ground track
Ground track

The orbit data is extracted from the following two-line orbital elements,

1 22830U 93061H   20304.90675541 +.00000003 +00000-0 +18403-4 0  9993
2 22830 098.7491 355.2515 0009902 286.3446 073.6648 14.31458295414201
Epoch (UTC): 30 October 2020 21:45:43
Eccentricity: 0.0009902
inclination: 98.7491°
perigee height: 780 km
apogee height: 794 km
right ascension of ascending node: 355.2515°
argument of perigee: 286.3446°
revolutions per day: 14.31458295
mean anomaly at epoch: 73.6648°
orbit number at epoch: 41420

The dashed part of the orbit path shows where the satellite is in the earth's shadow,  

DLR